Alamosa, CO

7:22 AM MST on February 09, 2016 (GMT -0700)
San Luis Valley Regional / Bergman Field

Weather History for KALS - July, 2013

Change the Weather History Date:

Tuesday, July 9, 2013

  Actual Average Record
Temperature  
Mean Temperature 70 °F 64 °F  
Max Temperature 89 °F 83 °F 92 °F (2003)
Min Temperature 51 °F 46 °F 38 °F (1997)
Degree Days  
Heating Degree Days 0 2  
Month to date heating degree days 8 18  
Since 1 June heating degree days 110 186  
Since 1 July heating degree days 8 18  
Cooling Degree Days 5 1  
Month to date cooling degree days 13 9  
Year to date cooling degree days 29 15  
Since 1 June cooling degree days 29 15  
Growing Degree Days 20 (Base 50)    
Moisture  
Dew Point 43 °F    
Average Humidity 49    
Maximum Humidity 83    
Minimum Humidity 15    
Precipitation  
Precipitation 0.00 in 0.03 in 0.64 in (2006)
Month to date precipitation 0.16 0.24  
Year to date precipitation 1.77 2.95  
Snow  
Snow 0.00 in 0.00 in 0.00 in (2002)
Month to date snowfall 0.0 0.0  
Since 1 June snowfall 0.0 0.0  
Since 1 July snowfall 0.0 0.0  
Snow Depth 0.00 in    
Sea Level Pressure  
Sea Level Pressure 30.08 in    
Wind  
Wind Speed 7 mph (ESE)    
Max Wind Speed 23 mph    
Max Gust Speed 28 mph    
Visibility 10 miles    
Events      
T = Trace of Precipitation, MM = Missing Value Source: NWS Daily Summary

Daily Weather History Graph

Daily Weather History Graph

Search for Another Location

Airport or City:

Trip Planner

Search our weather history database for the weather conditions in past years. The results will help you decide how hot, cold, wet, or windy it might be!

Date:

Astronomy

Jul. 09, 2013 Rise Set
Actual Time 5:50 AM MDT 8:26 PM MDT
Civil Twilight 5:20 AM MDT 8:57 PM MDT
Nautical Twilight 4:42 AM MDT 9:35 PM MDT
Astronomical Twilight 3:59 AM MDT 10:17 PM MDT
Moon 7:14 AM MDT 9:08 PM MDT
Length of Visible Light 15h 36m
Length of Day
14h 35m
New Moon, 2% of the Moon is Illuminated
Jul 9
New Moon
Jul 15
First Quarter
Jul 22
Full
Jul 29
Last Quarter
Aug 6
New

Hourly Weather History & Observations

Time (MDT) Temp. Dew Point Humidity Pressure Visibility Wind Dir Wind Speed Gust Speed Precip Events Conditions
12:52 AM 62.1 °F 48.0 °F 60% 30.06 in 10.0 mi SE 6.9 mph - N/A   Mostly Cloudy
1:52 AM 60.1 °F 48.0 °F 64% 30.08 in 10.0 mi NNE 4.6 mph - N/A   Clear
2:52 AM 55.0 °F 46.9 °F 74% 30.10 in 10.0 mi East 5.8 mph - N/A   Clear
3:52 AM 52.0 °F 46.0 °F 80% 30.10 in 10.0 mi Calm Calm - N/A   Scattered Clouds
4:52 AM 53.1 °F 46.0 °F 77% 30.13 in 10.0 mi Calm Calm - N/A   Clear
5:52 AM 52.0 °F 46.0 °F 80% 30.14 in 10.0 mi Calm Calm - N/A   Clear
6:52 AM 57.9 °F 48.0 °F 70% 30.13 in 10.0 mi Calm Calm - N/A   Clear
7:52 AM 64.0 °F 46.9 °F 54% 30.14 in 10.0 mi NNW 10.4 mph - N/A   Mostly Cloudy
8:52 AM 68.0 °F 46.9 °F 47% 30.13 in 10.0 mi Variable 4.6 mph - N/A   Scattered Clouds
9:52 AM 70.0 °F 48.9 °F 47% 30.14 in 10.0 mi Variable 3.5 mph - N/A   Clear
10:52 AM 73.0 °F 46.9 °F 39% 30.14 in 10.0 mi Calm Calm - N/A   Clear
11:52 AM 80.1 °F 45.0 °F 29% 30.12 in 10.0 mi North 5.8 mph - N/A   Partly Cloudy
12:52 PM 82.0 °F 39.9 °F 22% 30.08 in 10.0 mi Variable 3.5 mph - N/A   Clear
1:52 PM 84.9 °F 37.9 °F 19% 30.04 in 10.0 mi Variable 3.5 mph - N/A   Clear
2:52 PM 87.1 °F 33.1 °F 15% 30.04 in 10.0 mi South 8.1 mph - N/A   Clear
3:52 PM 86.0 °F 39.9 °F 20% 30.04 in 10.0 mi SE 8.1 mph 17.3 mph N/A   Clear
4:52 PM 86.0 °F 36.0 °F 17% 30.04 in 10.0 mi NW 11.5 mph 20.7 mph N/A   Partly Cloudy
5:52 PM 82.9 °F 36.0 °F 19% 30.03 in 10.0 mi West 11.5 mph - N/A   Clear
6:52 PM 79.0 °F 43.0 °F 28% 30.02 in 10.0 mi West 11.5 mph - N/A   Clear
7:52 PM 75.9 °F 42.1 °F 30% 30.03 in 10.0 mi ESE 10.4 mph - N/A   Clear
8:52 PM 73.9 °F 41.0 °F 30% 30.03 in 10.0 mi SE 18.4 mph 27.6 mph N/A   Clear
9:52 PM 70.0 °F 44.1 °F 39% 30.06 in 10.0 mi ESE 12.7 mph - N/A   Clear
10:52 PM 66.9 °F 43.0 °F 42% 30.06 in 10.0 mi ESE 9.2 mph - N/A   Clear
11:52 PM 62.1 °F 44.1 °F 52% 30.06 in 10.0 mi South 5.8 mph - N/A   Clear